Location: Veytaux
(46.4185°N, 6.9320°E)
Time: 09:12:04
(UTC+00:00)

Cosmos 2074 Rocket - Pass Details

Date: 27 May 2022
Orbit: 968 x 985 km, 82.9° (Epoch: 01 July)

Event Time Altitude Azimuth Distance (km) Brightness Sun altitude
Rises 01:45:56 0° 347° (NNW) 3,701 7.7 -15.6°
Reaches altitude 10° 01:48:30 10° 343° (NNW) 2,750 6.9 -15.4°
Maximum altitude 01:54:37 55° 268° (W) 1,176 4.2 -14.8°
Enters shadow 01:59:11 18° 197° (SSW) 2,196 5.3 -14.3°
